This demonstration page uses our WeatherBlox Daily Observations layout. Learn more.

Left ArrowRight Arrow

Hourly Observations for December 5, 2015

Temp ( °F °C ) Dew Point ( °F °C ) Humidity (%) Winds ( mph kmh ) Pressure ( in mb ) Visibility ( mi km ) Precip ( " mm )
12:58 am 00:58 Clear 41 5.1 35 1.9 80 80 SSE 9 15 30.36 1028 10 16 0.00 0.00
1:58 am 01:58 Clear 39 3.8 35 1.6 86 86 SSE 9 15 30.35 1028 10 16 0.00 0.00
2:58 am 02:58 Clear 38 3.4 35 1.4 87 87 SSE 10 17 30.35 1028 10 16 0.00 0.00
3:58 am 03:58 Clear 39 3.8 35 1.6 86 86 SSE 12 19 30.33 1027 10 16 0.00 0.00
4:58 am 04:58 Clear 39 3.9 35 1.6 85 85 SSE 13 20 30.33 1027 10 16 0.00 0.00
5:58 am 05:58 Clear 39 3.9 35 1.6 85 85 SSE 13 20 30.33 1027 10 16 0.00 0.00
6:58 am 06:58 Clear 39 4.1 35 1.6 84 84 SSE 16 26 30.31 1027 10 16 0.00 0.00
7:58 am 07:58 Sunny 40 4.3 35 1.6 83 83 SSE 16 26 30.32 1027 10 16 0.00 0.00
8:58 am 08:58 Sunny 41 4.8 35 1.5 79 79 SSE 16 26 30.33 1027 10 16 0.00 0.00
9:58 am 09:58 Sunny 42 5.4 35 1.9 78 78 SSE 16 26 30.31 1026 10 16 0.00 0.00
10:58 am 10:58 Sunny 46 7.5 37 2.7 72 72 SSE 18 30 30.30 1026 10 16 0.00 0.00
11:58 am 11:58 Sunny 48 8.7 38 3.2 69 69 S 16 26 30.26 1025 10 16 0.00 0.00
12:58 pm 12:58 Sunny 49 9.4 38 3.6 67 67 SSE 14 22 30.24 1024 10 16 0.00 0.00
1:58 pm 13:58 Sunny 50 10.2 39 3.8 65 65 SSE 13 20 30.22 1023 10 16 0.00 0.00
2:58 pm 14:58 Sunny 51 10.8 39 4 63 63 SSE 10 17 30.22 1023 10 16 0.00 0.00
3:58 pm 15:58 Sunny 50 10.1 40 4.2 67 67 S 10 17 30.24 1024 10 16 0.00 0.00
4:58 pm 16:58 Partly Cloudy 47 8.2 38 3.6 73 73 SE 7 11 30.26 1025 10 16 0.00 0.00
5:58 pm 17:58 Cloudy 47 8.6 38 3.6 71 71 SSE 7 11 30.28 1025 10 16 0.00 0.00
6:58 pm 18:58 Cloudy 47 8.1 38 3.4 73 73 SE 6 9 30.29 1026 10 16 0.00 0.00
7:58 pm 19:58 Cloudy 47 8.2 38 3.1 71 71 SSE 6 9 30.29 1026 10 16 0.00 0.00
8:58 pm 20:58 Cloudy 47 8.1 37 2.6 69 69 S 6 9 30.29 1026 10 16 0.00 0.00
9:58 pm 21:58 Cloudy 47 8.1 37 2.6 69 69 S 6 9 30.29 1026 10 16 0.00 0.00
10:58 pm 22:58 Cloudy 44 6.8 37 3 77 77 SSE 5 7 30.29 1026 10 16 0.00 0.00
11:58 pm 23:58 Cloudy 45 7.3 37 2.7 73 73 SSE 3 6 30.29 1026 10 16 0.00 0.00

Powered by AerisWeather